TimeAKST,TemperatureF,Dew PointF,Humidity,Sea Level PressureIn,VisibilityMPH,Wind Direction,Wind SpeedMPH,Gust SpeedMPH,PrecipitationIn,Events,Conditions,WindDirDegrees,DateUTC
12:16 AM,37.4,30.2,75,30.21,10.0,SW,3.5,-,N/A,,Overcast,230,2013-01-21 09:16:00
12:36 AM,37.4,32.0,81,30.19,10.0,Calm,Calm,-,N/A,,Overcast,0,2013-01-21 09:36:00
12:56 AM,37.4,32.0,81,30.19,10.0,WNW,5.8,-,N/A,,Overcast,290,2013-01-21 09:56:00
1:16 AM,35.6,32.0,87,30.18,10.0,WSW,4.6,-,N/A,,Overcast,250,2013-01-21 10:16:00
1:36 AM,37.4,32.0,81,30.18,10.0,West,4.6,-,N/A,,Overcast,260,2013-01-21 10:36:00
1:56 AM,39.2,33.8,81,30.18,10.0,Calm,Calm,-,N/A,,Overcast,0,2013-01-21 10:56:00
2:16 AM,37.4,33.8,87,30.17,10.0,West,5.8,-,N/A,,Overcast,270,2013-01-21 11:16:00
2:36 AM,35.6,32.0,87,30.17,10.0,WSW,5.8,-,N/A,,Overcast,250,2013-01-21 11:36:00
2:56 AM,37.4,33.8,87,30.17,10.0,SW,4.6,-,N/A,,Overcast,230,2013-01-21 11:56:00
3:16 AM,37.4,35.6,93,30.16,10.0,Calm,Calm,-,N/A,,Overcast,0,2013-01-21 12:16:00
3:36 AM,37.4,33.8,87,30.17,10.0,West,6.9,-,N/A,,Overcast,270,2013-01-21 12:36:00
3:56 AM,35.6,33.8,93,30.16,9.0,West,3.5,-,N/A,,Overcast,260,2013-01-21 12:56:00
4:16 AM,37.4,33.8,87,30.15,10.0,SW,4.6,-,N/A,,Overcast,220,2013-01-21 13:16:00
4:36 AM,37.4,35.6,93,30.16,10.0,Calm,Calm,-,N/A,,Overcast,0,2013-01-21 13:36:00
4:56 AM,35.6,33.8,93,30.15,10.0,Calm,Calm,-,N/A,,Overcast,0,2013-01-21 13:56:00
5:16 AM,37.4,35.6,93,30.14,10.0,Calm,Calm,-,N/A,,Overcast,0,2013-01-21 14:16:00
5:36 AM,35.6,33.8,93,30.14,10.0,SSW,4.6,-,N/A,,Overcast,210,2013-01-21 14:36:00
5:56 AM,37.4,35.6,93,30.14,10.0,WSW,4.6,-,N/A,,Overcast,240,2013-01-21 14:56:00
6:16 AM,37.4,35.6,93,30.13,10.0,WSW,3.5,-,N/A,,Overcast,240,2013-01-21 15:16:00
6:36 AM,37.4,33.8,87,30.12,10.0,WSW,3.5,-,N/A,,Overcast,250,2013-01-21 15:36:00
6:56 AM,35.6,33.8,93,30.12,10.0,Calm,Calm,-,N/A,,Overcast,0,2013-01-21 15:56:00
7:16 AM,35.6,33.8,93,30.12,10.0,Calm,Calm,-,N/A,,Overcast,0,2013-01-21 16:16:00
7:36 AM,35.6,33.8,93,30.12,10.0,Calm,Calm,-,N/A,,Overcast,0,2013-01-21 16:36:00
7:56 AM,37.4,35.6,93,30.11,10.0,Calm,Calm,-,N/A,,Overcast,0,2013-01-21 16:56:00
8:16 AM,37.4,33.8,87,30.11,7.0,Calm,Calm,-,N/A,,Overcast,0,2013-01-21 17:16:00
8:36 AM,37.4,35.6,93,30.12,7.0,Calm,Calm,-,N/A,,Overcast,0,2013-01-21 17:36:00
8:56 AM,37.4,35.6,93,30.12,5.0,Calm,Calm,-,N/A,,Overcast,0,2013-01-21 17:56:00
9:16 AM,37.4,35.6,93,30.11,5.0,WSW,3.5,-,N/A,,Overcast,250,2013-01-21 18:16:00
9:36 AM,37.4,35.6,93,30.11,5.0,Calm,Calm,-,N/A,,Overcast,0,2013-01-21 18:36:00
9:56 AM,37.4,33.8,87,30.11,10.0,West,4.6,-,N/A,,Overcast,270,2013-01-21 18:56:00
10:16 AM,37.4,33.8,87,30.10,10.0,WNW,3.5,-,N/A,,Overcast,290,2013-01-21 19:16:00
10:36 AM,37.4,33.8,87,30.09,10.0,Calm,Calm,-,N/A,,Overcast,0,2013-01-21 19:36:00
11:16 AM,37.4,33.8,87,30.09,10.0,Calm,Calm,-,N/A,,Mostly Cloudy,0,2013-01-21 20:16:00
11:36 AM,37.4,33.8,87,30.09,10.0,Calm,Calm,-,N/A,,Mostly Cloudy,0,2013-01-21 20:36:00
11:56 AM,37.4,33.8,87,30.08,10.0,Calm,Calm,-,N/A,,Overcast,0,2013-01-21 20:56:00
12:16 PM,37.4,33.8,87,30.07,10.0,Calm,Calm,-,N/A,,Overcast,0,2013-01-21 21:16:00
12:36 PM,37.4,33.8,87,30.06,10.0,Calm,Calm,-,N/A,,Overcast,0,2013-01-21 21:36:00
12:56 PM,37.4,33.8,87,30.05,10.0,Calm,Calm,-,N/A,,Mostly Cloudy,0,2013-01-21 21:56:00
1:16 PM,37.4,33.8,87,30.05,10.0,Calm,Calm,-,N/A,,Mostly Cloudy,0,2013-01-21 22:16:00
1:36 PM,37.4,33.8,87,30.04,10.0,Calm,Calm,-,N/A,,Mostly Cloudy,0,2013-01-21 22:36:00
1:56 PM,37.4,33.8,87,30.03,10.0,Calm,Calm,-,N/A,,Partly Cloudy,0,2013-01-21 22:56:00
2:16 PM,37.4,33.8,87,30.02,10.0,WSW,4.6,-,N/A,,Partly Cloudy,250,2013-01-21 23:16:00
2:36 PM,37.4,33.8,87,30.01,10.0,WSW,4.6,-,N/A,,Partly Cloudy,250,2013-01-21 23:36:00
2:56 PM,37.4,33.8,87,30.01,10.0,Calm,Calm,-,N/A,,Partly Cloudy,0,2013-01-21 23:56:00
3:16 PM,35.6,32.0,87,30.01,10.0,Calm,Calm,-,N/A,,Partly Cloudy,0,2013-01-22 00:16:00
3:36 PM,35.6,33.8,93,30.00,10.0,West,4.6,-,N/A,,Partly Cloudy,260,2013-01-22 00:36:00
3:56 PM,35.6,32.0,87,30.00,10.0,WSW,3.5,-,N/A,,Partly Cloudy,250,2013-01-22 00:56:00
4:16 PM,35.6,33.8,93,29.98,10.0,East,3.5,-,N/A,,Partly Cloudy,80,2013-01-22 01:16:00
4:36 PM,35.6,30.2,81,29.97,10.0,South,4.6,-,N/A,,Partly Cloudy,190,2013-01-22 01:36:00
4:56 PM,33.8,30.2,87,29.97,10.0,West,6.9,-,N/A,,Partly Cloudy,260,2013-01-22 01:56:00
5:16 PM,33.8,32.0,93,29.97,10.0,West,5.8,-,N/A,,Partly Cloudy,280,2013-01-22 02:16:00
5:36 PM,35.6,30.2,81,29.95,10.0,Calm,Calm,-,N/A,,Partly Cloudy,0,2013-01-22 02:36:00
5:56 PM,33.8,30.2,87,29.94,10.0,SSW,3.5,-,N/A,,Clear,210,2013-01-22 02:56:00
6:16 PM,35.6,30.2,81,29.94,10.0,Calm,Calm,-,N/A,,Clear,0,2013-01-22 03:16:00
6:36 PM,33.8,30.2,87,29.94,10.0,Calm,Calm,-,N/A,,Clear,0,2013-01-22 03:36:00
8:47 PM,33.8,30.2,87,29.89,10.0,East,9.2,-,N/A,,Clear,100,2013-01-22 05:47:00
9:36 PM,-9999,-9999,N/A,29.88,10.0,SW,3.5,-,N/A,,Clear,220,2013-01-22 06:36:00
9:56 PM,35.6,30.2,81,29.88,10.0,Calm,Calm,-,N/A,,Clear,0,2013-01-22 06:56:00
10:16 PM,33.8,30.2,87,29.87,10.0,Calm,Calm,-,N/A,,Clear,0,2013-01-22 07:16:00
10:36 PM,33.8,30.2,87,29.87,10.0,SW,3.5,-,N/A,,Clear,220,2013-01-22 07:36:00
10:56 PM,33.8,30.2,87,29.87,10.0,SW,3.5,-,N/A,,Clear,230,2013-01-22 07:56:00
11:16 PM,33.8,30.2,87,29.86,10.0,WSW,3.5,-,N/A,,Clear,240,2013-01-22 08:16:00
11:36 PM,35.6,30.2,81,29.85,10.0,SSW,4.6,-,N/A,,Clear,200,2013-01-22 08:36:00
11:56 PM,35.6,30.2,81,29.85,10.0,Calm,Calm,-,N/A,,Clear,0,2013-01-22 08:56:00